IGO5057 VOHS-VABB

Flight info

Callsign IGO5057
Flight time N/A
Altitude 36000
Route TAMIV7 APUSU W18 OPAKA EMRAK2A
Aircraft A20N/M-SDE2E3FGHIRWXY/LB1

Departure

Time 2026-04-17 17:55
Airport Rajiv Gandhi International Airport (VOHS)

Arrival

Time N/A
Airport Chhatrapati Shivaji Maharaj International Airport (VABB)
Time Latitude Longitude Altitude Speed Heading
2026-04-17 17:40 17.23404 78.42956 2001 ft 0 kts 360°
2026-04-17 17:48 17.23394 78.42956 2001 ft 2 kts 359°
2026-04-17 17:48 17.23378 78.42956 2002 ft 2 kts 360°
2026-04-17 17:49 17.23363 78.42956 2002 ft 2 kts 359°
2026-04-17 17:49 17.23349 78.42956 2002 ft 0 kts 360°
2026-04-17 17:49 17.23340 78.42956 2002 ft 2 kts 331°
2026-04-17 17:49 17.23331 78.42968 2003 ft 1 kts 278°
2026-04-17 17:50 17.23331 78.42974 2003 ft 1 kts 263°
2026-04-17 17:50 17.23332 78.42978 2003 ft 0 kts 268°
2026-04-17 17:51 17.23331 78.42964 2003 ft 4 kts 268°
2026-04-17 17:52 17.23331 78.42919 2001 ft 8 kts 269°
2026-04-17 17:52 17.23329 78.42844 1998 ft 12 kts 269°
2026-04-17 17:52 17.23313 78.42744 1995 ft 14 kts 225°
2026-04-17 17:52 17.23210 78.42731 1993 ft 15 kts 180°
2026-04-17 17:53 17.23098 78.42720 1991 ft 15 kts 223°
2026-04-17 17:53 17.23084 78.42597 1986 ft 18 kts 268°
2026-04-17 17:53 17.23083 78.42449 1981 ft 21 kts 273°
2026-04-17 17:53 17.23072 78.42287 1975 ft 23 kts 249°
2026-04-17 17:54 17.22959 78.42239 1973 ft 18 kts 185°
2026-04-17 17:54 17.22879 78.42303 1975 ft 14 kts 101°
2026-04-17 17:54 17.22875 78.42399 1979 ft 18 kts 89°
2026-04-17 17:54 17.22878 78.42823 1995 ft 94 kts 89°
2026-04-17 17:55 17.22889 78.43737 2027 ft 155 kts 85°
2026-04-17 17:55 17.22928 78.45012 2309 ft 185 kts 90°
2026-04-17 17:55 17.22959 78.46363 2958 ft 190 kts 91°
2026-04-17 17:55 17.22980 78.47774 3389 ft 202 kts 91°
2026-04-17 17:56 17.23089 78.49300 3693 ft 223 kts 78°
2026-04-17 17:56 17.23871 78.50765 4024 ft 249 kts 42°
2026-04-17 17:56 17.25507 78.51501 4465 ft 271 kts
2026-04-17 17:56 17.27374 78.51076 5064 ft 284 kts 330°
2026-04-17 17:57 17.28768 78.49602 5606 ft 287 kts 297°
2026-04-17 17:57 17.29214 78.47598 6070 ft 290 kts 269°
2026-04-17 17:57 17.29106 78.45512 6796 ft 293 kts 268°
2026-04-17 17:57 17.29070 78.43359 7556 ft 295 kts 272°
2026-04-17 17:58 17.29162 78.41233 8332 ft 295 kts 276°
2026-04-17 17:58 17.29349 78.39111 9067 ft 297 kts 278°
2026-04-17 17:58 17.29600 78.36974 9799 ft 298 kts 279°
2026-04-17 17:58 17.29890 78.34817 10465 ft 303 kts 280°
2026-04-17 17:59 17.30215 78.32585 10818 ft 319 kts 280°
2026-04-17 17:59 17.30565 78.30274 11197 ft 332 kts 280°
2026-04-17 17:59 17.30946 78.27834 11848 ft 337 kts 282°
2026-04-17 17:59 17.31713 78.25555 12511 ft 336 kts 301°
2026-04-17 18:00 17.32969 78.23508 13241 ft 337 kts 304°
2026-04-17 18:00 17.34284 78.21450 13870 ft 341 kts 305°
2026-04-17 18:00 17.35608 78.19385 14439 ft 346 kts 305°
2026-04-17 18:00 17.36948 78.17292 15002 ft 350 kts 304°